Juneau, WI

8:02 PM CST on November 22, 2019 (GMT -0600)
Dodge County

Weather History for KUNU - October, 2019

Change the Weather History Date:

Monday, October 21, 2019

  Actual Average Record
Temperature  
Mean Temperature 54 °F -  
Max Temperature 62 °F 54 °F 78 °F (1978)
Min Temperature 45 °F 39 °F 23 °F (1976)
Degree Days  
Heating Degree Days 12    
Growing Degree Days 4 (Base 50)    
Moisture  
Dew Point 47 °F    
Average Humidity 80    
Maximum Humidity 99    
Minimum Humidity 53    
Precipitation  
Precipitation 0.33 in - - ()
Sea Level Pressure  
Sea Level Pressure 29.52 in    
Wind  
Wind Speed 10 mph ()    
Max Wind Speed 30 mph    
Max Gust Speed 41 mph    
Visibility 7.3 miles    
Events Rain    
Averages and records for this station are not official NWS values.
T = Trace of Precipitation, MM = Missing Value Source: Averaged Metar Reports

Daily Weather History Graph

Daily Weather History Graph

Search for Another Location

Airport or City:

Astronomy

Oct. 21, 2019 Rise Set
Actual Time 7:15 AM CDT 6:02 PM CDT
Civil Twilight 6:46 AM CDT 6:31 PM CDT
Nautical Twilight 6:13 AM CDT 7:04 PM CDT
Astronomical Twilight 5:40 AM CDT 7:37 PM CDT
Moon No Moon Rise 2:39 PM CDT (10/21)
Length of Visible Light 11h 44m
Length of Day
10h 46m
Waning Gibbous, 48% of the Moon is Illuminated
Oct 21
Waning Gibbous
Oct 27
New
Nov 4
First Quarter
Nov 12
Full
Nov 19
Last Quarter

Hourly Weather History & Observations

Time (CDT) Temp. Windchill Dew Point Humidity Pressure Visibility Wind Dir Wind Speed Gust Speed Precip Events Conditions
12:15 AM 45.0 °F - 42.8 °F 92% 29.90 in 2.5 mi Calm Calm - N/A   Clear
12:35 AM 45.5 °F - 42.8 °F 90% 29.89 in 3.0 mi Calm Calm - N/A   Clear
12:55 AM 45.7 °F - 42.6 °F 89% 29.88 in 3.0 mi Calm Calm - N/A   Clear
1:15 AM 45.5 °F - 42.4 °F 89% 29.87 in 3.0 mi Calm Calm - N/A   Clear
1:35 AM 45.5 °F - 42.3 °F 88% 29.84 in 3.0 mi Calm Calm - N/A   Scattered Clouds
1:55 AM 46.0 °F 43.9 °F 41.9 °F 85% 29.85 in 1.8 mi East 4.6 mph - N/A   Scattered Clouds
2:15 AM 46.8 °F - 42.3 °F 84% 29.85 in 2.0 mi Calm Calm - N/A   Haze
2:35 AM 46.9 °F - 42.8 °F 86% 29.83 in 1.8 mi East 4.6 mph - N/A   Overcast
2:55 AM 47.3 °F - 43.7 °F 87% 29.81 in 1.5 mi East 9.2 mph - N/A   Overcast
3:15 AM 46.9 °F - 43.9 °F 89% 29.81 in 1.8 mi East 5.8 mph - N/A   Mostly Cloudy
3:35 AM 48.0 °F - 44.6 °F 88% 29.81 in 1.5 mi East 3.5 mph - N/A   Overcast
3:55 AM 48.2 °F - 45.0 °F 89% 29.78 in 1.2 mi East 11.5 mph - N/A   Overcast
4:15 AM 47.7 °F - 45.3 °F 92% 29.77 in 2.5 mi East 11.5 mph - N/A   Mostly Cloudy
4:35 AM 47.8 °F - 46.0 °F 93% 29.75 in 4.0 mi East 9.2 mph - N/A   Overcast
4:55 AM 48.6 °F - 46.6 °F 93% 29.75 in 2.0 mi East 9.2 mph - N/A   Overcast
5:15 AM 49.1 °F - 47.3 °F 93% 29.73 in 4.0 mi East 10.4 mph - N/A   Overcast
5:35 AM 49.8 °F - 47.7 °F 92% 29.72 in 4.0 mi East 12.7 mph 20.7 mph N/A   Overcast
5:55 AM 50.4 °F - 48.0 °F 92% 29.70 in 10.0 mi East 11.5 mph 17.3 mph N/A   Mostly Cloudy
6:15 AM 51.1 °F - 48.4 °F 90% 29.68 in 10.0 mi East 11.5 mph 19.6 mph N/A   Overcast
6:35 AM 52.0 °F - 48.4 °F 88% 29.66 in 10.0 mi East 17.3 mph 23.0 mph N/A   Overcast
6:55 AM 52.7 °F - 48.6 °F 86% 29.64 in 10.0 mi East 12.7 mph - N/A   Overcast
7:15 AM 52.9 °F - 48.9 °F 86% 29.63 in 10.0 mi East 11.5 mph 20.7 mph N/A   Overcast
7:35 AM - - - N/A% 29.61 in 10.0 mi East 18.4 mph 23.0 mph N/A   Overcast
7:55 AM 52.9 °F - 49.5 °F 88% 29.61 in 10.0 mi East 16.1 mph 20.7 mph N/A   Overcast
8:15 AM 53.6 °F - 49.6 °F 86% 29.59 in 10.0 mi East 19.6 mph 25.3 mph N/A   Overcast
8:35 AM 53.8 °F - 50.0 °F 87% 29.57 in 10.0 mi East 19.6 mph 26.5 mph N/A   Overcast
8:55 AM 54.5 °F - 50.0 °F 85% 29.56 in 10.0 mi East 17.3 mph 26.5 mph N/A   Overcast
9:35 AM 54.1 °F - 50.2 °F 86% 29.44 in 10.0 mi East 27.6 mph 38.0 mph N/A   Mostly Cloudy
9:55 AM 54.5 °F - 50.5 °F 86% 29.46 in 10.0 mi East 25.3 mph 31.1 mph N/A   Light Drizzle
10:15 AM 55.0 °F - 50.7 °F 85% 29.45 in 10.0 mi ESE 20.7 mph 33.4 mph N/A   Overcast
10:35 AM 54.7 °F - 52.0 °F 91% 29.43 in 7.0 mi East 19.6 mph 27.6 mph 0.01 in Rain Rain
10:55 AM 54.5 °F - 52.9 °F 94% 29.40 in 4.0 mi ESE 15.0 mph 31.1 mph 0.03 in Rain Light Rain
11:15 AM 54.5 °F - 53.4 °F 96% 29.37 in 2.5 mi ESE 20.7 mph 26.5 mph 0.07 in Rain Heavy Rain
11:35 AM 54.7 °F - 53.6 °F 96% 29.36 in 5.0 mi ESE 29.9 mph 41.4 mph 0.10 in Rain Light Rain
11:55 AM 54.7 °F - 53.8 °F 97% 29.35 in 3.0 mi SE 24.2 mph 29.9 mph 0.11 in Rain Light Rain
12:15 PM 55.6 °F - 54.7 °F 97% 29.35 in 4.0 mi SE 21.9 mph 34.5 mph N/A Rain Light Rain
12:35 PM 56.3 °F - 55.4 °F 97% 29.33 in 4.0 mi SE 25.3 mph 34.5 mph 0.01 in   Drizzle
12:55 PM 55.9 °F - 55.4 °F 98% 29.33 in 3.0 mi SE 20.7 mph 26.5 mph 0.05 in Rain Rain
1:15 PM 55.9 °F - 55.6 °F 99% 29.32 in 4.0 mi SSE 12.7 mph 18.4 mph 0.06 in Rain Light Rain
1:35 PM 56.5 °F - 56.1 °F 99% 29.32 in 2.5 mi SSE 13.8 mph 26.5 mph 0.13 in Rain Heavy Rain
1:55 PM 57.4 °F - 56.8 °F 98% 29.32 in 10.0 mi SSE 17.3 mph 24.2 mph 0.14 in Rain Light Rain
2:15 PM 58.3 °F - 57.4 °F 97% 29.33 in 10.0 mi SSW 9.2 mph 24.2 mph N/A   Overcast
2:35 PM 61.7 °F - 58.8 °F 90% 29.32 in 10.0 mi South 13.8 mph 20.7 mph N/A   Mostly Cloudy
2:55 PM 61.9 °F - 56.5 °F 82% 29.32 in 10.0 mi South 15.0 mph 23.0 mph N/A   Mostly Cloudy
3:15 PM 62.8 °F - 56.1 °F 79% 29.32 in 10.0 mi South 11.5 mph 19.6 mph N/A   Mostly Cloudy
3:55 PM 61.7 °F - 50.7 °F 67% 29.33 in 10.0 mi South 12.7 mph 18.4 mph N/A   Mostly Cloudy
4:15 PM 62.8 °F - 48.4 °F 59% 29.33 in 10.0 mi South 16.1 mph 25.3 mph N/A   Mostly Cloudy
4:35 PM 61.5 °F - 46.8 °F 58% 29.34 in 10.0 mi South 16.1 mph 27.6 mph N/A   Scattered Clouds
4:55 PM 61.7 °F - 44.4 °F 53% 29.35 in 10.0 mi South 21.9 mph 28.8 mph N/A   Scattered Clouds
5:15 PM 59.4 °F - 44.8 °F 58% 29.36 in 10.0 mi South 17.3 mph 28.8 mph N/A   Clear
5:35 PM 58.1 °F - 44.6 °F 61% 29.37 in 10.0 mi South 16.1 mph 25.3 mph N/A   Clear
5:55 PM 57.4 °F - 42.8 °F 58% 29.38 in 10.0 mi South 21.9 mph 29.9 mph N/A   Scattered Clouds
6:15 PM 56.3 °F - 41.4 °F 57% 29.39 in 10.0 mi SSW 17.3 mph 27.6 mph N/A   Mostly Cloudy
6:35 PM 55.0 °F - 40.3 °F 58% 29.40 in 10.0 mi SSW 17.3 mph 24.2 mph N/A   Scattered Clouds
6:55 PM 54.9 °F - 40.1 °F 58% 29.41 in 10.0 mi SSW 13.8 mph 23.0 mph N/A   Mostly Cloudy
7:15 PM 54.9 °F - 40.5 °F 58% 29.41 in 10.0 mi South 12.7 mph 19.6 mph N/A   Overcast
7:55 PM 53.2 °F - 42.1 °F 66% 29.43 in 10.0 mi SSW 26.5 mph 33.4 mph N/A Rain Light Rain
8:15 PM 51.3 °F - 38.8 °F 63% 29.44 in 10.0 mi SSW 25.3 mph 38.0 mph N/A   Overcast
8:35 PM 50.9 °F - 38.3 °F 62% 29.44 in 10.0 mi SSW 25.3 mph 34.5 mph N/A   Overcast
8:55 PM 50.2 °F - 38.3 °F 64% 29.44 in 10.0 mi South 15.0 mph 31.1 mph N/A   Overcast
9:15 PM 50.0 °F - 38.3 °F 64% 29.43 in 10.0 mi South 15.0 mph 23.0 mph N/A   Overcast
9:35 PM 50.0 °F - 37.9 °F 63% 29.43 in 10.0 mi South 16.1 mph 23.0 mph N/A   Overcast
9:55 PM 49.6 °F - 38.3 °F 65% 29.43 in 10.0 mi South 17.3 mph 24.2 mph N/A   Overcast
10:15 PM 49.5 °F - 38.1 °F 65% 29.42 in 10.0 mi South 17.3 mph 23.0 mph N/A   Overcast
10:35 PM 49.5 °F - 38.3 °F 65% 29.41 in 10.0 mi South 13.8 mph 26.5 mph N/A   Overcast
10:55 PM 49.5 °F - 39.2 °F 68% 29.41 in 10.0 mi South 18.4 mph 23.0 mph N/A   Overcast
11:15 PM 49.5 °F - 39.4 °F 68% 29.40 in 10.0 mi South 18.4 mph 25.3 mph N/A   Overcast
11:35 PM 49.3 °F - 39.7 °F 70% 29.39 in 10.0 mi South 18.4 mph 26.5 mph N/A   Overcast
11:55 PM 49.5 °F - 40.1 °F 70% 29.38 in 10.0 mi South 13.8 mph 21.9 mph N/A   Overcast